Location: Newark
(46.7636°N, 1.8358°W)
Time: 05:05:06
(UTC+00:00)

Vanguard 1 Rocket - Pass Details

Date: 30 October 2019
Orbit: 651 x 4226 km, 34.3° (Epoch: 18 November)

Event Time Altitude Azimuth Distance (km) Brightness Sun altitude
Rises 08:28:55 0° 230° (SW) 4,159 10.7 14.5°
Reaches altitude 10° 08:31:24 10° 222° (SW) 3,509 10.4 14.8°
Maximum altitude 08:40:00 40° 156° (SSE) 2,840 11.1 15.9°
Drops below altitude 10° 08:55:35 10° 95° (E) 6,270 12.6 17.9°
Sets 09:01:55 0° 90° (E) 7,784 12.8 18.6°
